CW5761 Weather Reports


time (UTC)temp
C
wind
direction
speed
KPH
gust
KPH
rain 1hr
cm
rain 24hr
cm
rain mn
cm
humidity
%
barometer
mb
20260510153004 21 332 0.0 0.0 0.00 0.00 0.00 74 1013.2
20260510152004 20 331 0.0 0.0 0.00 0.00 0.00 77 1013.1
20260510151004 20 331 0.0 0.0 0.00 0.00 0.00 78 1013.1
20260510150005 19 331 0.0 0.0 0.00 0.00 0.00 82 1013.1
20260510145008 18 329 0.0 0.0 0.00 0.00 0.00 82 1013.1
20260510143003 17 329 0.0 0.0 0.00 0.00 0.00 88 1013.3
20260510142004 16 329 0.0 0.0 0.00 0.00 0.00 91 1013.3
20260510141008 16 329 0.0 0.0 0.00 0.00 0.00 95 1013.2
20260510140008 15 329 0.0 0.0 0.00 0.00 0.00 98 1013.2
20260510135004 14 329 0.0 0.0 0.00 0.00 0.00 99 1013.2
20260510134054 14 329 0.0 0.0 0.00 0.00 0.00 99 1013.3
20260510133003 13 329 0.0 0.0 0.00 0.00 0.00 99 1013.3
20260510132628 13 329 0.0 0.0 0.00 0.00 0.00 99 1013.3
20260510123003 12 329 0.0 0.0 0.00 0.00 0.00 99 1013.2
20260510121003 12 329 0.0 0.0 0.00 0.00 0.00 98 1012.7
20260510115004 11 329 0.0 0.0 0.00 0.00 0.00 98 1012.3
20260510110005 11 329 0.0 0.0 0.00 0.00 0.00 98 1012.3
20260510105248 11 329 0.0 0.0 0.00 0.00 0.00 98 1012.2
20260510103003 11 329 0.0 0.0 0.00 0.00 0.00 98 1011.9
20260510102004 11 329 0.0 0.0 0.00 0.00 0.00 98 1011.8
20260510101003 11 329 0.0 0.0 0.00 0.00 0.00 98 1011.9
20260510100005 11 329 0.0 0.0 0.00 0.00 0.00 98 1011.9
20260510095003 11 329 0.0 0.0 0.00 0.00 0.00 98 1011.8
20260510094704 11 329 0.0 0.0 0.00 0.00 0.00 98 1011.8
20260510093004 11 329 0.0 0.0 0.00 0.00 0.00 98 1011.5
20260510092003 11 329 0.0 0.0 0.00 0.00 0.00 98 1011.5
20260510091003 11 329 0.0 0.0 0.00 0.00 0.00 98 1011.7
20260510090454 11 329 0.0 0.0 0.00 0.00 0.00 98 1011.7
20260510083003 11 329 0.0 0.0 0.00 0.00 0.00 98 1011.7
20260510081005 11 342 4.8 0.0 0.00 0.00 0.00 97 1011.1
20260510080114 11 340 4.8 0.0 0.00 0.00 0.00 97 1011.1
20260510073003 11 340 0.0 0.0 0.00 0.00 0.00 98 1011.0
20260510072003 11 340 0.0 0.0 0.00 0.00 0.00 98 1011.0
20260510071003 11 340 0.0 0.0 0.00 0.00 0.00 98 1011.1
20260510065004 11 340 0.0 0.0 0.00 0.00 0.00 98 1011.0
20260510064003 11 340 0.0 0.0 0.00 0.00 0.00 98 1010.8
20260510063004 10 340 0.0 0.0 0.00 0.00 0.00 98 1010.8
20260510062008 10 340 0.0 0.0 0.00 0.00 0.00 97 1010.6
20260510061003 10 340 0.0 0.0 0.00 0.00 0.00 97 1010.7
20260510060004 10 340 0.0 0.0 0.00 0.00 0.00 97 1010.7
20260510055403 10 340 0.0 0.0 0.00 0.00 0.00 97 1011.0
20260510053003 10 340 0.0 0.0 0.00 0.00 0.00 97 1011.0
20260510052004 10 340 0.0 0.0 0.00 0.00 0.00 97 1011.1
20260510050003 10 340 0.0 0.0 0.00 0.00 0.00 97 1011.1
20260510045008 10 340 0.0 0.0 0.00 0.00 0.00 97 1011.2
20260510044238 10 340 0.0 0.0 0.00 0.00 0.00 97 1011.2
20260510043003 10 340 0.0 0.0 0.00 0.00 0.00 97 1011.2
20260510042003 10 340 0.0 0.0 0.00 0.00 0.00 96 1011.2
20260510041009 10 340 0.0 0.0 0.00 0.00 0.00 96 1011.3
20260510040144 10 340 0.0 0.0 0.00 0.00 0.00 96 1011.3
20260510033009 10 340 0.0 0.0 0.00 0.00 0.41 96 1011.1
20260510032005 10 340 0.0 0.0 0.00 0.00 0.41 96 1011.0
20260510031004 10 340 0.0 0.0 0.00 0.00 0.41 97 1011.0
20260510025459 10 340 0.0 0.0 0.00 0.00 0.41 96 1010.9
20260510022009 10 340 0.0 0.0 0.00 0.00 0.41 95 1010.7
20260510021004 10 340 0.0 0.0 0.00 0.00 0.41 95 1010.7
20260510020008 10 340 0.0 0.0 0.00 0.00 0.41 95 1010.7
20260510015004 10 340 0.0 0.0 0.00 0.00 0.41 95 1010.6
20260510014855 10 340 0.0 0.0 0.00 0.00 0.41 95 1010.6
20260510013004 11 340 0.0 0.0 0.00 0.00 0.41 95 1010.7
20260510012009 11 340 0.0 0.0 0.00 0.00 0.41 95 1010.6
20260510011004 11 340 0.0 0.0 0.00 0.00 0.41 94 1010.5
20260510010009 11 340 0.0 0.0 0.00 0.00 0.41 94 1010.5
20260510005004 11 340 0.0 0.0 0.00 0.00 0.41 94 1010.3
20260510004004 11 340 0.0 0.0 0.00 0.00 0.41 94 1010.1
20260510002010 12 340 0.0 0.0 0.00 0.00 0.41 94 1010.0
20260510000004 12 340 0.0 0.0 0.00 0.00 0.38 94 1010.0
20260509234654 12 340 0.0 0.0 0.00 0.00 0.38 94 1010.1
20260509233005 13 340 0.0 0.0 0.00 0.00 0.38 93 1010.1
20260509232004 13 340 0.0 0.0 0.00 0.00 0.38 93 1010.0
20260509231005 13 340 0.0 0.0 0.00 0.00 0.38 93 1010.0
20260509230109 13 340 0.0 0.0 0.00 0.00 0.38 93 1010.0
20260509223005 14 340 0.0 0.0 0.00 0.00 0.38 93 1010.1
20260509222004 14 340 0.0 0.0 0.00 0.00 0.38 93 1009.8
20260509221004 14 340 0.0 0.0 0.00 0.00 0.38 93 1010.0
20260509220005 14 340 0.0 0.0 0.00 0.00 0.38 93 1010.0
20260509214005 14 340 0.0 0.0 0.00 0.00 0.38 94 1010.1
20260509213005 14 340 0.0 0.0 0.00 0.00 0.38 93 1010.1
20260509210004 13 340 0.0 0.0 0.00 0.00 0.38 95 1010.1
20260509205005 13 340 0.0 0.0 0.00 0.00 0.38 95 1010.1
20260509204004 13 340 0.0 0.0 0.00 0.00 0.38 94 1010.1
20260509203005 13 340 0.0 0.0 0.00 0.00 0.38 94 1010.1
20260509202009 13 340 0.0 0.0 0.00 0.00 0.33 94 1010.1
20260509201005 13 340 0.0 0.0 0.00 0.00 0.33 93 1010.3
20260509195004 13 340 0.0 0.0 0.00 0.00 0.23 93 1010.6
20260509194259 13 340 0.0 0.0 0.00 0.00 0.23 93 1010.9
20260509192004 13 344 0.0 0.0 0.00 0.00 0.18 93 1011.1
20260509191009 14 344 0.0 0.0 0.00 0.00 0.18 93 1011.1
20260509190004 14 344 0.0 0.0 0.00 0.00 0.18 93 1011.1
20260509185009 13 344 0.0 0.0 0.00 0.00 0.15 92 1011.2
20260509184214 13 344 0.0 0.0 0.00 0.00 0.15 92 1011.4
20260509182004 14 355 0.0 0.0 0.00 0.00 0.13 92 1011.5
20260509181010 14 355 0.0 0.0 0.00 0.00 0.10 91 1011.4
20260509180005 14 355 0.0 0.0 0.00 0.00 0.08 90 1011.4
20260509175004 15 355 0.0 0.0 0.00 0.00 0.08 90 1011.2
20260509174005 15 355 0.0 0.0 0.00 0.00 0.08 89 1011.0
20260509172004 15 355 0.0 0.0 0.00 0.00 0.05 89 1011.2
20260509171005 15 355 0.0 0.0 0.00 0.00 0.05 88 1011.3
20260509170004 15 355 0.0 0.0 0.00 0.00 0.05 86 1011.3
20260509165004 15 355 0.0 0.0 0.00 0.00 0.03 85 1011.5
20260509164005 16 355 0.0 0.0 0.00 0.00 0.03 83 1011.5
20260509162004 16 355 0.0 0.0 0.00 0.00 0.00 77 1011.6
20260509161004 17 355 0.0 0.0 0.00 0.00 0.00 74 1011.6
20260509160005 17 343 8.0 0.0 0.00 0.00 0.00 74 1011.6
20260509155004 17 339 0.0 0.0 0.00 0.00 0.00 69 1011.8
20260509154130 17 339 0.0 0.0 0.00 0.00 0.00 67 1011.9